Rochester, NY

3:56 AM EDT on October 14, 2019 (GMT -0400)
Greater Rochester International

Weather History for KROC - September, 2019

Change the Weather History Date:

Wednesday, September 18, 2019

  Actual Average Record
Temperature  
Mean Temperature 62 °F 61 °F  
Max Temperature 75 °F 71 °F 92 °F (1955)
Min Temperature 49 °F 51 °F 37 °F (1990)
Degree Days  
Heating Degree Days 3 5  
Month to date heating degree days 36 58  
Since 1 July heating degree days 41 92  
Cooling Degree Days 0 1  
Month to date cooling degree days 24 40  
Year to date cooling degree days 581 524  
Growing Degree Days 12 (Base 50)    
Moisture  
Dew Point 50 °F    
Average Humidity 70    
Maximum Humidity 89    
Minimum Humidity 41    
Precipitation  
Precipitation 0.00 in 0.12 in 2.42 in (1945)
Month to date precipitation 2.00 2.02  
Year to date precipitation 22.85 24.62  
Snow  
Snow 0.00 in 0.00 in 0.00 in ()
Month to date snowfall 0.0 0.0  
Since 1 July snowfall 0.0 0.0  
Since 1 September snowfall 0.0 0.0  
Snow Depth 0.00 in    
Sea Level Pressure  
Sea Level Pressure 30.29 in    
Wind  
Wind Speed 3 mph ()    
Max Wind Speed 16 mph    
Max Gust Speed 18 mph    
Visibility 10.0 miles    
Events      
T = Trace of Precipitation, MM = Missing Value Source: Averaged Metar Reports

Daily Weather History Graph

Daily Weather History Graph

Search for Another Location

Airport or City:

Astronomy

Sep. 18, 2019 Rise Set
Actual Time 6:53 AM EDT 7:15 PM EDT
Civil Twilight 6:24 AM EDT 7:44 PM EDT
Nautical Twilight 5:51 AM EDT 8:17 PM EDT
Astronomical Twilight 5:16 AM EDT 8:51 PM EDT
Moon 9:42 PM EDT (9/18) 11:00 AM EDT (9/18)
Length of Visible Light 13h 19m
Length of Day
12h 22m
Waning Gibbous, 82% of the Moon is Illuminated
Sep 18
Waning Gibbous
Sep 21
Last Quarter
Sep 28
New
Oct 5
First Quarter
Oct 13
Full

Hourly Weather History & Observations

Time (EDT) Temp. Dew Point Humidity Pressure Visibility Wind Dir Wind Speed Gust Speed Precip Events Conditions
12:54 AM 53.1 °F 50.0 °F 89% 30.24 in 10.0 mi SW 3.5 mph - N/A   Clear
1:54 AM 52.0 °F 48.9 °F 89% 30.25 in 10.0 mi Calm Calm - N/A   Clear
2:54 AM 52.0 °F 48.9 °F 89% 30.25 in 10.0 mi Calm Calm - N/A   Clear
3:54 AM 51.1 °F 48.0 °F 89% 30.26 in 10.0 mi Calm Calm - N/A   Clear
4:54 AM 51.1 °F 48.0 °F 89% 30.26 in 10.0 mi Calm Calm - N/A   Clear
5:54 AM 50.0 °F 46.9 °F 89% 30.27 in 10.0 mi Calm Calm - N/A   Clear
6:54 AM 50.0 °F 46.9 °F 89% 30.28 in 10.0 mi Calm Calm - N/A   Partly Cloudy
7:54 AM 51.1 °F 48.0 °F 89% 30.30 in 10.0 mi SW 4.6 mph - N/A   Clear
8:54 AM 55.9 °F 50.0 °F 80% 30.31 in 10.0 mi WSW 4.6 mph - N/A   Clear
9:54 AM 61.0 °F 51.1 °F 70% 30.32 in 10.0 mi SSE 3.5 mph - N/A   Clear
10:54 AM 66.9 °F 48.9 °F 52% 30.31 in 10.0 mi SSE 6.9 mph - N/A   Clear
11:54 AM 70.0 °F 48.9 °F 47% 30.30 in 10.0 mi SE 8.1 mph - N/A   Partly Cloudy
12:54 PM 72.0 °F 48.0 °F 43% 30.30 in 10.0 mi East 9.2 mph - N/A   Partly Cloudy
1:54 PM 73.0 °F 48.9 °F 42% 30.29 in 10.0 mi SE 11.5 mph - N/A   Partly Cloudy
2:54 PM 73.0 °F 48.9 °F 42% 30.29 in 10.0 mi ESE 5.8 mph - N/A   Scattered Clouds
3:54 PM 73.0 °F 48.9 °F 42% 30.29 in 10.0 mi East 5.8 mph - N/A   Scattered Clouds
4:54 PM 73.9 °F 51.1 °F 45% 30.28 in 10.0 mi NNE 15.0 mph - N/A   Mostly Cloudy
5:54 PM 68.0 °F 50.0 °F 52% 30.29 in 10.0 mi NNE 11.5 mph - N/A   Mostly Cloudy
6:54 PM 66.0 °F 52.0 °F 60% 30.30 in 10.0 mi NE 8.1 mph - N/A   Mostly Cloudy
7:54 PM 63.0 °F 53.1 °F 70% 30.30 in 10.0 mi ENE 5.8 mph - N/A   Mostly Cloudy
8:54 PM 61.0 °F 53.1 °F 75% 30.30 in 10.0 mi Calm Calm - N/A   Clear
9:54 PM 59.0 °F 53.1 °F 81% 30.31 in 10.0 mi ESE 3.5 mph - N/A   Partly Cloudy
10:54 PM 57.9 °F 52.0 °F 81% 30.29 in 10.0 mi South 3.5 mph - N/A   Partly Cloudy
11:54 PM 57.0 °F 51.1 °F 81% 30.30 in 10.0 mi Calm Calm - N/A   Partly Cloudy